Lake Hudson Weather Center

Moon Phase Calendar



Lake Hudson Water Level
Online Cameras

 


      

Current Conditions in Salina
6/24/2021 1:12:27 PM

91°F
Feels Like 103
Clouds
Humidity
69%
Pressure
29.85"
Wind
21.6 mph (SSW)
Dew Point
79°F
UV Index
7/10 (High)
Visibility
6 mi

Hourly Forecast

Date & Time Thu, Jun 24
1:00 PM
Thu, Jun 24
2:00 PM
Thu, Jun 24
3:00 PM
Thu, Jun 24
4:00 PM
Thu, Jun 24
5:00 PM
Thu, Jun 24
6:00 PM
Thu, Jun 24
7:00 PM
Thu, Jun 24
8:00 PM
Thu, Jun 24
9:00 PM
Thu, Jun 24
10:00 PM
Thu, Jun 24
11:00 PM
Fri, Jun 25
12:00 AM
Fri, Jun 25
1:00 AM
Fri, Jun 25
2:00 AM
Fri, Jun 25
3:00 AM
Fri, Jun 25
4:00 AM
Fri, Jun 25
5:00 AM
Fri, Jun 25
6:00 AM
Fri, Jun 25
7:00 AM
Fri, Jun 25
8:00 AM
Fri, Jun 25
9:00 AM
Fri, Jun 25
10:00 AM
Fri, Jun 25
11:00 AM
Fri, Jun 25
12:00 PM
Fri, Jun 25
1:00 PM
Fri, Jun 25
2:00 PM
Fri, Jun 25
3:00 PM
Fri, Jun 25
4:00 PM
Fri, Jun 25
5:00 PM
Fri, Jun 25
6:00 PM
Fri, Jun 25
7:00 PM
Fri, Jun 25
8:00 PM
Fri, Jun 25
9:00 PM
Fri, Jun 25
10:00 PM
Fri, Jun 25
11:00 PM
Sat, Jun 26
12:00 AM
Sat, Jun 26
1:00 AM
Sat, Jun 26
2:00 AM
Sat, Jun 26
3:00 AM
Sat, Jun 26
4:00 AM
Sat, Jun 26
5:00 AM
Sat, Jun 26
6:00 AM
Sat, Jun 26
7:00 AM
Sat, Jun 26
8:00 AM
Sat, Jun 26
9:00 AM
Sat, Jun 26
10:00 AM
Sat, Jun 26
11:00 AM
Sat, Jun 26
12:00 PM
Condition
Clouds

Clouds

Clouds

Clouds

Clouds

Clear

Clear

Clear

Clear

Clear

Clear

Clouds

Clouds

Clouds

Clouds

Clouds

Clouds

Clouds

Clouds

Clouds

Clouds

Clouds

Clouds

Clouds

Clouds

Clear

Clear

Clear

Clear

Clear

Clear

Clear

Clear

Clear

Clear

Clear

Clouds

Clouds

Clouds

Clouds

Clouds

Clouds

Clouds

Clouds

Rain

Clouds

Clouds

Clouds
Temperature 91°F91°F91°F91°F91°F89°F87°F84°F84°F83°F82°F82°F82°F81°F80°F79°F79°F78°F77°F79°F81°F84°F86°F88°F90°F91°F92°F91°F90°F89°F87°F83°F82°F81°F82°F82°F82°F82°F81°F79°F78°F78°F77°F77°F77°F77°F79°F81°F
Feels Like 103°F103°F104°F104°F103°F100°F96°F91°F89°F88°F87°F87°F85°F84°F80°F79°F79°F79°F78°F80°F87°F92°F94°F98°F99°F101°F101°F101°F100°F98°F95°F90°F86°F85°F85°F85°F85°F85°F84°F79°F79°F79°F78°F78°F78°F78°F79°F86°F
Cloudiness 32%27%21%16%11%6%5%0%0%0%0%20%31%30%57%64%72%72%73%78%55%43%39%33%28%0%0%0%0%0%0%0%0%0%0%0%16%100%100%99%99%98%98%100%99%100%99%97%
Visibility 6 mi6 mi6 mi6 mi6 mi6 mi6 mi6 mi6 mi6 mi6 mi6 mi6 mi6 mi6 mi6 mi6 mi6 mi6 mi6 mi6 mi6 mi6 mi6 mi6 mi6 mi6 mi6 mi6 mi6 mi6 mi6 mi6 mi6 mi6 mi6 mi6 mi6 mi6 mi6 mi6 mi6 mi6 mi6 mi6 mi6 mi6 mi6 mi
Precipitation 0%0%0%0%0%0%0%0%0%0%0%0%0%0%0%0%0%0%0%0%0%0%0%0%0%0%0%5%5%2%2%0%0%0%0%0%0%0%0%0%0%1%1%15%38%38%38%36%
Humidity 69%67%65%63%61%63%66%69%65%67%70%69%68%70%72%72%72%76%82%81%78%74%68%64%60%57%56%57%59%62%66%71%68%69%69%67%65%64%66%72%76%77%81%81%83%83%78%72%
Dew Point 79°F78°F78°F77°F76°F75°F74°F73°F71°F71°F71°F71°F70°F70°F69°F69°F69°F69°F70°F72°F73°F74°F74°F74°F74°F74°F74°F73°F74°F74°F74°F73°F70°F70°F70°F69°F69°F68°F68°F69°F69°F69°F70°F70°F71°F71°F72°F71°F
Pressure 29.85"29.85"29.85"29.83"29.83"29.8"29.8"29.8"29.83"29.85"29.83"29.83"29.83"29.83"29.83"29.83"29.83"29.85"29.88"29.88"29.88"29.88"29.88"29.85"29.85"29.83"29.83"29.8"29.77"29.71"29.74"29.77"29.8"29.83"29.83"29.8"29.8"29.8"29.8"29.8"29.8"29.8"29.83"29.83"29.85"29.85"29.85"29.85"
Wind Speed 21.6 mph20.8 mph19.8 mph18.6 mph17.3 mph16.1 mph15 mph14.9 mph14.8 mph15.5 mph16.9 mph17.1 mph16.7 mph14.8 mph13.2 mph13.9 mph14 mph12.8 mph12.8 mph14.6 mph16.9 mph18.1 mph19 mph18.6 mph18.2 mph17.6 mph16.8 mph16.3 mph16.2 mph14.9 mph12.8 mph9.8 mph9.6 mph11.9 mph14.2 mph15.6 mph17.3 mph16.4 mph16 mph14.5 mph13.3 mph15.8 mph15.2 mph15.9 mph15.5 mph15.5 mph16.6 mph16.8 mph
Wind
Direction
201°
SSW
209°
SSW
208°
SSW
206°
SSW
206°
SSW
205°
SSW
196°
SSW
186°
S
194°
SSW
189°
S
182°
S
189°
S
185°
S
186°
S
184°
S
184°
S
190°
S
192°
SSW
184°
S
188°
S
197°
SSW
203°
SSW
205°
SSW
206°
SSW
206°
SSW
211°
SSW
215°
SW
218°
SW
218°
SW
208°
SSW
203°
SSW
201°
SSW
189°
S
187°
S
184°
S
180°
S
175°
S
182°
S
190°
S
189°
S
184°
S
179°
S
190°
S
188°
S
198°
SSW
194°
SSW
199°
SSW
198°
SSW

Daily Forecast

Date High Low Precip. Humidity
Today
Jun 24

Clouds
91 °F
75 °F
0%
69%
Friday
Jun 25

Clouds
92 °F
77 °F
5%
60%
Saturday
Jun 26

Rain
86 °F
75 °F
66%
59%
Sunday
Jun 27

Rain
82 °F
69 °F
100%
70%
Monday
Jun 28

Rain
74 °F
68 °F
100%
91%
Tuesday
Jun 29

Rain
79 °F
69 °F
82%
73%
Wednesday
Jun 30

Rain
79 °F
69 °F
95%
80%
Thursday
Jul 1

Clouds
87 °F
68 °F
64%
61%
Friday
Jul 2

Rain
81 °F
67 °F
98%
77%
Saturday
Jul 3

Clear
85 °F
64 °F
5%
52%
Sunday
Jul 4

Rain
74 °F
66 °F
86%
94%
Monday
Jul 5

Rain
80 °F
64 °F
82%
80%
Tuesday
Jul 6

Clear
83 °F
65 °F
9%
61%
Wednesday
Jul 7

Rain
86 °F
68 °F
29%
55%
Thursday
Jul 8

Rain
85 °F
70 °F
84%
70%
Friday
Jul 9

Rain
89 °F
74 °F
41%
58%

Temperature 8-14 Day Outlook



Precipitation 8-14 Day Outlook




Quick Links
Lake Hudson News
Lake Hudson Photos
Lake Hudson Videos




About Us
Contact Us
Site Map
Search Site
Advertise With Us
   
Hudson.USLakes.info
THE LAKE HUDSON WEBSITE

Copyright 2021, Lakes Online
Privacy    |    Legal